Hourly Weather Goias

Today, 17 May, Monday

Time Temperature Precipitation Wind Pressure Humidity
00:00 +25°C° 0 mm 1 mps 718 mmHg 52%
01:00 +24°C° 0 mm 1 mps 718 mmHg 53%
02:00 +23°C° 0 mm 1 mps 717 mmHg 55%
03:00 +23°C° 0 mm 1 mps 717 mmHg 56%
04:00 +22°C° 0 mm 1 mps 717 mmHg 58%
05:00 +21°C° 0 mm 1 mps 717 mmHg 59%
06:00 +21°C° 0 mm 1 mps 717 mmHg 61%
07:00 +23°C° 0 mm 1 mps 718 mmHg 57%
08:00 +24°C° 0 mm 1 mps 718 mmHg 52%
09:00 +26°C° 0 mm 1 mps 719 mmHg 48%
10:00 +28°C° 0 mm 1 mps 719 mmHg 43%
11:00 +30°C° 0 mm 2 mps 719 mmHg 38%
12:00 +32°C° 0 mm 2 mps 719 mmHg 33%
13:00 +32°C° 0 mm 2 mps 718 mmHg 32%
14:00 +32°C° 0 mm 2 mps 717 mmHg 31%
15:00 +34°C° 0 mm 2 mps 717 mmHg 30%
16:00 +30°C° 0 mm 1 mps 717 mmHg 34%
17:00 +28°C° 0 mm 1 mps 716 mmHg 39%
18:00 +24°C° 0 mm 0 mps 716 mmHg 44%
19:00 +26°C° 0 mm 1 mps 716 mmHg 44%
20:00 +26°C° 0 mm 1 mps 717 mmHg 44%
21:00 +25°C° 0 mm 1 mps 717 mmHg 44%
22:00 +25°C° 0 mm 1 mps 717 mmHg 46%
23:00 +24°C° 0 mm 1 mps 717 mmHg 47%

Tomorrow, 18 May, Tuesday

Time Temperature Precipitation Wind Pressure Humidity
00:00 +24°C° 0 mm 1 mps 717 mmHg 48%
01:00 +23°C° 0 mm 1 mps 717 mmHg 49%
02:00 +22°C° 0 mm 1 mps 716 mmHg 50%
03:00 +21°C° 0 mm 2 mps 716 mmHg 52%
04:00 +21°C° 0 mm 2 mps 716 mmHg 52%
05:00 +20°C° 0 mm 2 mps 716 mmHg 52%
06:00 +20°C° 0 mm 2 mps 716 mmHg 52%
07:00 +23°C° 0 mm 2 mps 717 mmHg 49%
08:00 +25°C° 0 mm 2 mps 718 mmHg 47%
09:00 +27°C° 0 mm 2 mps 718 mmHg 44%
10:00 +29°C° 0 mm 2 mps 718 mmHg 38%
11:00 +31°C° 0 mm 2 mps 718 mmHg 33%
12:00 +34°C° 0 mm 2 mps 718 mmHg 28%
13:00 +34°C° 0 mm 2 mps 717 mmHg 27%
14:00 +33°C° 0 mm 1 mps 717 mmHg 27%
15:00 +33°C° 0 mm 1 mps 716 mmHg 26%
16:00 +31°C° 0 mm 1 mps 716 mmHg 31%
17:00 +29°C° 0 mm 1 mps 716 mmHg 35%
18:00 +27°C° 0 mm 1 mps 716 mmHg 40%
19:00 +26°C° 0 mm 1 mps 716 mmHg 41%
20:00 +25°C° 0 mm 1 mps 716 mmHg 43%
21:00 +23°C° 0 mm 1 mps 717 mmHg 44%
22:00 +23°C° 0 mm 1 mps 717 mmHg 46%
23:00 +22°C° 0 mm 1 mps 717 mmHg 47%

Day after tomorrow, 19 May, Wednesday

Time Temperature Precipitation Wind Pressure Humidity
00:00 +22°C° 0 mm 1 mps 717 mmHg 48%
01:00 +21°C° 0 mm 1 mps 716 mmHg 49%
02:00 +21°C° 0 mm 1 mps 716 mmHg 49%
03:00 +20°C° 0 mm 2 mps 716 mmHg 50%
04:00 +21°C° 0 mm 1 mps 716 mmHg 51%
05:00 +20°C° 0 mm 1 mps 716 mmHg 52%
06:00 +20°C° 0 mm 1 mps 716 mmHg 52%
07:00 +23°C° 0 mm 1 mps 717 mmHg 48%
08:00 +25°C° 0 mm 1 mps 718 mmHg 45%
09:00 +27°C° 0 mm 1 mps 718 mmHg 41%
10:00 +29°C° 0 mm 1 mps 718 mmHg 36%
11:00 +32°C° 0 mm 1 mps 718 mmHg 31%
12:00 +34°C° 0 mm 1 mps 718 mmHg 27%
13:00 +34°C° 0 mm 1 mps 717 mmHg 26%
14:00 +34°C° 0 mm 1 mps 716 mmHg 26%
15:00 +34°C° 0 mm 1 mps 716 mmHg 25%
16:00 +31°C° 0 mm 1 mps 715 mmHg 31%
17:00 +29°C° 0 mm 1 mps 715 mmHg 38%
18:00 +26°C° 0 mm 2 mps 715 mmHg 44%
19:00 +25°C° 0 mm 1 mps 715 mmHg 45%
20:00 +25°C° 0 mm 1 mps 716 mmHg 47%
21:00 +24°C° 0 mm 1 mps 716 mmHg 48%
22:00 +23°C° 0 mm 1 mps 716 mmHg 48%
23:00 +23°C° 0 mm 1 mps 716 mmHg 49%

20 May, Thursday

Time Temperature Precipitation Wind Pressure Humidity
00:00 +22°C° 0 mm 1 mps 716 mmHg 49%
01:00 +22°C° 0 mm 1 mps 716 mmHg 49%
02:00 +22°C° 0 mm 1 mps 715 mmHg 50%
03:00 +21°C° 0 mm 1 mps 715 mmHg 51%
04:00 +21°C° 0 mm 1 mps 715 mmHg 51%
05:00 +21°C° 0 mm 1 mps 716 mmHg 52%
06:00 +21°C° 0 mm 1 mps 716 mmHg 52%
07:00 +23°C° 0 mm 1 mps 716 mmHg 48%
08:00 +25°C° 0 mm 1 mps 717 mmHg 44%
09:00 +28°C° 0 mm 1 mps 718 mmHg 40%
10:00 +30°C° 0 mm 1 mps 718 mmHg 36%
11:00 +32°C° 0 mm 1 mps 718 mmHg 32%
12:00 +35°C° 0 mm 1 mps 718 mmHg 27%
13:00 +35°C° 0 mm 1 mps 717 mmHg 27%
14:00 +35°C° 0 mm 1 mps 716 mmHg 27%
15:00 +35°C° 0 mm 1 mps 715 mmHg 26%
16:00 +32°C° 0 mm 1 mps 715 mmHg 32%
17:00 +30°C° 0 mm 1 mps 715 mmHg 38%
18:00 +28°C° 0 mm 1 mps 715 mmHg 43%
19:00 +27°C° 0 mm 1 mps 715 mmHg 45%
20:00 +26°C° 0 mm 1 mps 716 mmHg 47%
21:00 +25°C° 0 mm 1 mps 716 mmHg 49%
22:00 +24°C° 0 mm 1 mps 716 mmHg 50%
23:00 +24°C° 0 mm 1 mps 716 mmHg 51%

21 May, Friday

Time Temperature Precipitation Wind Pressure Humidity
00:00 +24°C° 0 mm 1 mps 716 mmHg 51%
01:00 +23°C° 0 mm 1 mps 715 mmHg 52%
02:00 +23°C° 0 mm 1 mps 715 mmHg 53%
03:00 +23°C° 0 mm 1 mps 715 mmHg 54%
04:00 +22°C° 0 mm 1 mps 715 mmHg 55%
05:00 +22°C° 0 mm 1 mps 715 mmHg 55%
06:00 +22°C° 0 mm 1 mps 715 mmHg 56%
07:00 +24°C° 0 mm 1 mps 716 mmHg 51%
08:00 +26°C° 0 mm 1 mps 716 mmHg 47%
09:00 +29°C° 0 mm 1 mps 717 mmHg 43%
10:00 +31°C° 0 mm 1 mps 717 mmHg 39%
11:00 +32°C° 0 mm 1 mps 717 mmHg 34%
12:00 +35°C° 0 mm 2 mps 717 mmHg 30%
13:00 +36°C° 0 mm 2 mps 716 mmHg 29%
14:00 +36°C° 0 mm 2 mps 715 mmHg 27%
15:00 +36°C° 0 mm 2 mps 714 mmHg 26%
16:00 +33°C° 0 mm 1 mps 714 mmHg 32%
17:00 +31°C° 0 mm 1 mps 714 mmHg 37%
18:00 +28°C° 0 mm 1 mps 714 mmHg 42%
19:00 +27°C° 0 mm 1 mps 714 mmHg 45%
20:00 +26°C° 0 mm 1 mps 715 mmHg 47%
21:00 +25°C° 0 mm 1 mps 715 mmHg 49%
22:00 +25°C° 0 mm 1 mps 715 mmHg 50%
23:00 +25°C° 0 mm 1 mps 715 mmHg 51%

22 May, Saturday

Time Temperature Precipitation Wind Pressure Humidity
00:00 +24°C° 0 mm 1 mps 715 mmHg 52%
01:00 +24°C° 0 mm 1 mps 715 mmHg 53%
02:00 +24°C° 0 mm 1 mps 715 mmHg 53%
03:00 +24°C° 0 mm 1 mps 715 mmHg 54%
04:00 +24°C° 0 mm 1 mps 715 mmHg 54%
05:00 +23°C° 0 mm 1 mps 715 mmHg 55%
06:00 +23°C° 0 mm 1 mps 715 mmHg 55%
07:00 +25°C° 0 mm 1 mps 716 mmHg 51%
08:00 +27°C° 0 mm 1 mps 716 mmHg 48%
09:00 +29°C° 0 mm 1 mps 717 mmHg 44%
10:00 +31°C° 0 mm 1 mps 717 mmHg 40%
11:00 +33°C° 0 mm 1 mps 717 mmHg 36%
12:00 +35°C° 0 mm 2 mps 717 mmHg 32%
13:00 +36°C° 0 mm 2 mps 716 mmHg 30%
14:00 +36°C° 0 mm 2 mps 716 mmHg 29%
15:00 +36°C° 0 mm 2 mps 715 mmHg 27%
16:00 +33°C° 0 mm 1 mps 715 mmHg 32%
17:00 +31°C° 0 mm 1 mps 715 mmHg 37%
18:00 +26°C° 0 mm 0 mps 714 mmHg 43%
19:00 +28°C° 0 mm 1 mps 715 mmHg 44%
20:00 +27°C° 0 mm 1 mps 715 mmHg 45%
21:00 +26°C° 0 mm 1 mps 715 mmHg 46%
22:00 +26°C° 0 mm 1 mps 716 mmHg 47%
23:00 +26°C° 0 mm 1 mps 716 mmHg 47%
Show more